Satellite: CO-57
Catalog number: 27848
Epoch time:      09160.00992685
Element set:     543
Inclination:      098.7135 deg
RA of node:       168.3520 deg
Eccentricity:    0.0009662
Arg of perigee:   166.2155 deg
Mean anomaly:     193.9286 deg
Mean motion:   14.20442716 rev/day
Decay rate:        2.1e-07 rev/day^2
Epoch rev:           30806
Checksum:              315

Satellite: AO-51
Catalog number: 28375
Epoch time:      09160.60239766
Element set:     408
Inclination:      098.0518 deg
RA of node:       170.6484 deg
Eccentricity:    0.0083823
Arg of perigee:   147.4309 deg
Mean anomaly:     213.2090 deg
Mean motion:   14.40644237 rev/day
Decay rate:        1.2e-07 rev/day^2
Epoch rev:           25986
Checksum:              307

Satellite: CO-56
Catalog number: 28941
Epoch time:      09160.64089696
Element set:     149
Inclination:      098.1354 deg
RA of node:       333.6568 deg
Eccentricity:    0.0087717
Arg of perigee:   160.9915 deg
Mean anomaly:     199.4569 deg
Mean motion:   15.83617954 rev/day
Decay rate:     7.4664e-04 rev/day^2
Epoch rev:           18605
Checksum:              385

Satellite: GENESAT1
Catalog number: 29655
Epoch time:      09159.63582989
Element set:     727
Inclination:      040.0246 deg
RA of node:       236.8943 deg
Eccentricity:    0.0001617
Arg of perigee:   007.7242 deg
Mean anomaly:     352.3600 deg
Mean motion:   15.65478441 rev/day
Decay rate:     1.1915e-04 rev/day^2
Epoch rev:           14113
Checksum:              304

Satellite: CP3
Catalog number: 31129
Epoch time:      09160.73038829
Element set:     984
Inclination:      097.9885 deg
RA of node:       214.1628 deg
Eccentricity:    0.0101916
Arg of perigee:   309.0000 deg
Mean anomaly:     050.2138 deg
Mean motion:   14.52136175 rev/day
Decay rate:        9.1e-07 rev/day^2
Epoch rev:           11380
Checksum:              283

Satellite: CO-65
Catalog number: 32785
Epoch time:      09159.34475686
Element set:    0389
Inclination:      097.9459 deg
RA of node:       223.3844 deg
Eccentricity:    0.0016173
Arg of perigee:   062.5907 deg
Mean anomaly:     297.6950 deg
Mean motion:   14.81488381 rev/day
Decay rate:       2.31e-06 rev/day^2
Epoch rev:           06013
Checksum:              349

Satellite: KKS-1
Catalog number: 33493
Epoch time:      09160.80076684
Element set:     458
Inclination:      098.0564 deg
RA of node:       272.9772 deg
Eccentricity:    0.0018741
Arg of perigee:   266.0322 deg
Mean anomaly:     093.8755 deg
Mean motion:   14.80680056 rev/day
Decay rate:       2.41e-06 rev/day^2
Epoch rev:            2037
Checksum:              309

Satellite: SOHLA-1
Catalog number: 33496
Epoch time:      09160.76011517
Element set:     419
Inclination:      098.0375 deg
RA of node:       270.1836 deg
Eccentricity:    0.0005854
Arg of perigee:   316.6836 deg
Mean anomaly:     043.3916 deg
Mean motion:   14.69436165 rev/day
Decay rate:        1.6e-07 rev/day^2
Epoch rev:            2018
Checksum:              298

/EX
SB KEPS @ AMSAT  $ORB09160.W
Orbital Elements  09160.WEATHER

HR AMSAT ORBITAL ELEMENTS FOR WEATHER SATELLITES
FROM WA5QGD FORT WORTH,TX June 9, 2009
Send Subscribe/unsubscribe to KEPS at 
http://www.amsat.org/mailman/listinfo/keps
BID: ORB09160.W
TO ALL RADIO AMATEURS BT

Satellite: NOAA-10
Catalog number: 16969
Epoch time:      09159.60520856
Element set:    0642
Inclination:      098.6907 deg
RA of node:       186.2992 deg
Eccentricity:    0.0011611
Arg of perigee:   219.5101 deg
Mean anomaly:     140.5241 deg
Mean motion:   14.27387980 rev/day
Decay rate:        1.0e-07 rev/day^2
Epoch rev:           18228
Checksum:              304

Satellite: NOAA-11
Catalog number: 19531
Epoch time:      09159.72144250
Element set:    0655
Inclination:      098.7848 deg
RA of node:       249.8048 deg
Eccentricity:    0.0012213
Arg of perigee:   130.1440 deg
Mean anomaly:     230.0803 deg
Mean motion:   14.14897566 rev/day
Decay rate:       1.72e-06 rev/day^2
Epoch rev:           06832
Checksum:              293

Satellite: NOAA-12
Catalog number: 21263
Epoch time:      09159.96571630
Element set:    0165
Inclination:      098.7708 deg
RA of node:       168.0227 deg
Eccentricity:    0.0012352
Arg of perigee:   165.3764 deg
Mean anomaly:     194.7775 deg
Mean motion:   14.25581533 rev/day
Decay rate:        2.1e-07 rev/day^2
Epoch rev:           93922
Checksum:              316

Satellite: MET-3/5
Catalog number: 21655
Epoch time:      09159.94457649
Element set:    0673
Inclination:      082.5524 deg
RA of node:       212.3149 deg
Eccentricity:    0.0012758
Arg of perigee:   197.0024 deg
Mean anomaly:     163.0673 deg
Mean motion:   13.17019367 rev/day
Decay rate:        5.1e-07 rev/day^2
Epoch rev:           85654
Checksum:              318

Satellite: MET-2/21
Catalog number: 22782
Epoch time:      09159.64614228
Element set:     478
Inclination:      082.5476 deg
RA of node:       188.7824 deg
Eccentricity:    0.0022927
Arg of perigee:   014.9134 deg
Mean anomaly:     345.2718 deg
Mean motion:   13.83635632 rev/day
Decay rate:        6.3e-07 rev/day^2
Epoch rev:           79642
Checksum:              334

